Skip Page Navigation
NASA JPL Caltech
NASA Logo - Jet Propulsion Laboratory + View the NASA Portal
+ Center for Near-Earth Object Studies
JPL Home Earth Solar System Stars & Galaxies Technology
JPL Solar System Dynamics
BODIES ORBITS EPHEMERIDES TOOLS PHYSICAL DATA DISCOVERY FAQ SITE MAP
IMPORTANT: The SSD Announcement email list is now available. Major changes are coming in the near future, including possible hostname and/or URL changes. To be notified of such changes, subscribe to this email list.

Please visit this page for more details.


JPL Small-Body Database Browser
Search: [ help ]  
34095 (2000 PW11)
Classification: Main-belt Asteroid          SPK-ID: 2034095
Ephemeris | Orbit Diagram | Orbital Elements | Mission Design | Physical Parameters | Discovery Circumstances ]

[ show orbit diagram ]
Orbital Elements at Epoch 2458600.5 (2019-Apr-27.0) TDB
Reference: JPL 23 (heliocentric ecliptic J2000)
 Element Value Uncertainty (1-sigma)   Units 
e .1639956451494773 3.726e-08  
a 2.626765628685686 1.5619e-08 au
q 2.195987504752904 9.8773e-08 au
i 14.52761330426792 4.0504e-06 deg
node 118.0508661660215 2.198e-05 deg
peri 157.9906641809555 2.7561e-05 deg
M 194.55370410371 1.764e-05 deg
tp 2459315.136117971806
(2021-Apr-10.63611797)
7.7826e-05 TDB
period 1555.000074653343
4.26
1.387e-05
3.797e-08
d
yr
n .2315112429047664 2.0649e-09 deg/d
Q 3.057543752618467 1.8181e-08 au
  Orbit Determination Parameters
   # obs. used (total)      1278  
   data-arc span      12030 days (32.94 yr)  
   first obs. used      1986-03-04  
   last obs. used      2019-02-09  
   planetary ephem.      DE431  
   SB-pert. ephem.      SB431-N16  
   condition code      0  
   norm. resid. RMS      .53451  
   source      ORB  
   producer      Otto Matic  
   solution date      2019-Jul-13 01:40:15  

Additional Information
 Earth MOID = 1.18514 au 
 Jupiter MOID = 2.13248 au 
 T_jup = 3.338 
[ show covariance matrix ]

Ephemeris | Orbit Diagram | Orbital Elements | Mission Design | Physical Parameters | Discovery Circumstances ]

Physical Parameter Table
Parameter Symbol Value Units Sigma Reference Notes
absolute magnitude H 13.8   n/a MPO240484  
diameter diameter 4.553 km 0.630 urn:nasa:pds:neowise_diameters_albedos::2.0[mainbelt] (http://adsabs.harvard.edu/abs/2011ApJ...741...68M)  
rotation period rot_per 4.598 h n/a LCDB (Rev. 2019-January); Warner et al., 2009 Result based on less than full coverage, so that the period may be wrong by 30 percent or so.
Published Reference List:
[Waszczak, A.; Chang, C.-K.; Ofeck, E.O.; Laher, F.; et al. (2015) Astron. J. 150, A75.]
[Durech, J.; Hanus, J.; Ali-Lagoa, V. (2018) Astron. Astrophys. 617, A57.]
geometric albedo albedo 0.309   0.082 urn:nasa:pds:neowise_diameters_albedos::2.0[mainbelt] (http://adsabs.harvard.edu/abs/2011ApJ...741...68M)  

34095 (2000 PW11)          Discovered 2000-Aug-01 by LINEAR at Socorro
Reference: 20020128/Numbers.arcLast Updated: 2004-04-19

Alternate Designations
 2000 PW11 = 1999 LR1 
Ephemeris | Orbit Diagram | Orbital Elements | Mission Design | Physical Parameters | Discovery Circumstances ]
ABOUT SSD CREDITS/AWARDS PRIVACY/COPYRIGHT GLOSSARY LINKS
FirstGov
(server date/time)  
NASA Home Page
Site Manager:   Ryan S. Park
Webmaster  Alan B. Chamberlin